ONEWEB-0285, 49075

Orbit data source: Space-Track

ONEWEB-0285, 49075 is a payload satellite owned by One Web (NAA) (UK) in LEO that was launched on Sat, 21 Aug 2021 UTC via a SOYUZ-2-1B launch vehicle from the Tyuratam Missile And Space Complex (TTMTR). Payload-class satellites include a variety of spacecraft equipped with specific instruments for various scientific and technological missions. These include communications satellites like Starlink; space stations such as the ISS; scientific satellites like the Hubble; Earth observation satellites from companies like Planet Labs, Umbra, and HawkEye 360; GPS; miniature CubeSats for education and research; and military/defense satellites.

Loading next visibility...
Identifier
49075, 2021-075A
Orbit
LEO
Country
Flag of UKUK
Related business
Manufacturer
One Web
Mission
Operational Commercial Communications
Bus & Motor
ARROW, Unknown motor
Mass
148 kg wet, ~140 kg dry
Launch date (UTC)
2021-08-21 (5 years ago)
Launch vehicle
SOYUZ-2-1B
Launch site
Tyuratam Missile And Space Complex (TTMTR)
Object type
Payload
Rocket body
Debris
Shape & HBR
Trap Box + 2 Pan, 6.7 m
Radar Cross Section
3.464 m², Large (>1 m²)

Expand to show TLE details & history
Last TLE update: 23 hours ago

TLE from 23 hours ago
0 ONEWEB-0285
1 49075U 21075A   26175.22655257  .00000218  00000-0  57080-3 0  9999
2 49075  87.8950 349.2618 0001802  94.2575 265.8759 13.12445120236130
Epoch: 2026-06-24T05:26Z
TLE epoch observation values (Epoch: 2026-06-24T05:26:14.142Z)
Latitude
-0.00005°
Longitude
-4.68393°
Altitude
1,216.704 km
Speed
7.246 km/s
True Right ascension
23h 17m 02s
True Declination
0° 00' 00"
Sunlit
Object was in daylight at epoch
Visualization orbit readout
Latitude
Unknown
Longitude
Unknown
Altitude
Unknown
Speed
Unknown
Apparent Right ascension
Unknown
Apparent Declination
Unknown
Sunlit
N/A
Visualization observer readout
Local Sidereal Time
15:24:30
Azimuth
Unknown
Elevation
Unknown
Doppler factor
Unknown
Orbital elements
Apogee altitude
1,212.199 km
Perigee altitude
1,209.464 km
Semi-major axis
7,588.969 km
Eccentricity
0.00018
Inclination
87.895°
RAAN
349.2618°
Arg. of periapsis
94.2575°
True anomaly
265.8553°
Mean anomaly
265.8759°
Eccentric anomaly
265.8656°
Mean motion
3.28299 °/min
Orbital period
109.66 mins
BSTAR
0.0005708
Loading maneuver chart data...
Computing Atmospheric mass density...
Loading historical data...
Loading historical data...
Loading historical data...
Loading historical data...
Loading historical data...
Loading historical data...
Loading historical data...

Documentation

Showing up to 5 results
|